SL-14 DEB, 45289

Orbit data source: Space-Track

SL-14 DEB, 45289 is space debris in LEO originally from a launch on Thu, 15 Aug 1991 UTC launched from the Plesetsk Missile And Space Complex (PKMTR). Debris objects in space refer to the collection of defunct objects orbiting the Earth. Examples of debris include non-operational satellites, rocket bodies, and fragments generated from explosions, collisions, or faulty payload assembly.

Loading next visibility...
Identifier
45289, 1991-056AB
Orbit
LEO
Last TLE update
7 hours ago
Origin
Manufacturer
Unknown
Mission
Spacecraft
Bus & Motor
Unknown
Mass
Unknown
Launch date (UTC)
1991-08-15 (34 years ago)
Launch vehicle
Unknown
Launch site
Plesetsk Missile And Space Complex (PKMTR)
Object type
Payload
Rocket body
Debris
Shape & HBR
Unknown
Radar Cross Section
Medium (>0.1 m² and <1 m²)

Expand to show TLE details & history

TLE from 7 hours ago
0 SL-14 DEB
1 45289U 91056AB  25200.18742325  .00000969  00000-0  37826-2 0  9992
2 45289  82.5366  93.8886 0177694 282.3380  75.7882 12.83029396253552
Epoch: 2025-07-19T04:29Z
TLE epoch observation values (Epoch: 2025-07-19T04:29:53.368Z)
Latitude
-0.00005°
Longitude
89.1881°
Altitude
1,300.746 km
Speed
7.221 km/s
True Right ascension
06h 15m 33s
True Declination
0° 00' 00"
Sunlit
Object was in daylight at epoch
Visualization orbit readout
Latitude
-0.11093°
Longitude
88.9657°
Altitude
1,302.202 km
Speed
7.219 km/s
Apparent Right ascension
08h 34m 05s
Apparent Declination
-25° 43' 60"
Sunlit
Object is in daylight
Visualization observer readout
Local Sidereal Time
00:48:41
Azimuth
95.409° ESE
Elevation
-35.823°
Doppler factor
1
Orbital elements
Apogee altitude
1,463.514 km
Perigee altitude
1,189.697 km
Semi-major axis
7,704.743 km
Eccentricity
0.01777
Inclination
82.5366°
RAAN
93.8886°
Arg. of periapsis
282.338°
True anomaly
77.77253°
Mean anomaly
75.7882°
Eccentric anomaly
76.77933°
Mean motion
3.20927 °/min
Orbital period
112.18 mins
BSTAR
0.0037826
Loading maneuver chart data...
Loading SW <> Apogee altitude chart data...
Loading historical data...
Loading historical data...
Loading historical data...
Loading historical data...
Loading historical data...
Loading historical data...
Loading historical data...
|